Regional Weather Roundup
Issued by NWS

Home | Current Version | Previous Version | Graphics & Text | Print | Product List | Glossary On
Versions: 1 2 3 4 5 6 7 8 9 10 11 12 13 14 15 16 17 18 19 20 21 22 23 24 25 26 27 28 29 30 31 32 33 34 35 36 37 38 39 40 41 42 43 44 45 46 47 48 49 50
000
ASUS44 KMEG 031110
RWRTN
TENNESSEE HOURLY STATE WEATHER ROUNDUP
NATIONAL WEATHER SERVICE MEMPHIS TN
600 AM CDT WED JUN 03 2015

TNZ002-004-019-021-049-052-054-088>092-031200-
WEST TENNESSEE

CITY           SKY/WX    TMP DP  RH WIND       PRES   REMARKS
MEMPHIS INTL   PTCLDY    61  58  90 CALM      30.02R FOG
NWS MEMPHIS      N/A     57 N/A N/A MISG        N/A
JACKSON        CLOUDY    60  58  92 CALM      30.02R
DYERSBURG      CLEAR     63  48  59 E5        30.03S
PARIS          CLOUDY    59  57  94 CALM      30.04R
LEXINGTON      CLOUDY    61  59  94 N3        30.01R
$$

TNZ008-025-027-028-033-062-065-066-031200-
NORTH MIDDLE TENNESSEE

CITY           SKY/WX    TMP DP  RH WIND       PRES   REMARKS
NASHVILLE      MOCLDY    58  56  93 N6        30.03R
CLARKSVILLE    PTCLDY    58  55  90 NE3       30.03S
SMYRNA         MOCLDY    59  58  96 N6        30.03R
COOKEVILLE     CLOUDY    57  57 100 CALM      30.00S
CROSSVILLE     FOG       58  56  93 E3        30.04R VSB 1/2
$$

TNZ061-075-076-078-094-096-097-031200-
SOUTH MIDDLE TENNESSEE

CITY           SKY/WX    TMP DP  RH WIND       PRES   REMARKS
FAYETTEVILLE   PTCLDY   N/A N/A N/A MISG      29.99S
TULLAHOMA      CLOUDY    61  57  88 NE6       30.01S
WINCHESTER     PTCLDY    61  61 100 CALM      30.00S
MCMINNVILLE    CLOUDY    61  61 100 NE5       30.01S
COLUMBIA       CLOUDY    63  61  94 NE6       30.00R
SHELBYVILLE    MOCLDY    61  61 100 CALM      30.01S
$$

TNZ017-018-042-046-047-031200-
NORTHEAST TENNESSEE

CITY           SKY/WX    TMP DP  RH WIND       PRES   REMARKS
TRI CITIES     CLOUDY    61  59  93 CALM      30.03R
ELIZABETHTON   SUNNY     54  54 100 CALM      30.03S
$$

TNZ012-013-036-069-073-074-031200-
CENTRAL EAST TENNESSEE

CITY           SKY/WX    TMP DP  RH WIND       PRES   REMARKS
KNOXVILLE      CLOUDY    62  60  93 E3        30.00R FOG
OAK RIDGE      CLEAR     62  58  86 CALM      30.02S
GATLINBURG     CLOUDY    57  55  94 CALM      30.02R
MORRISTOWN       N/A     61  61 100 NE3       30.03R
$$

TNZ083-085-099-031200-
SOUTHEAST TENNESSEE

CITY           SKY/WX    TMP DP  RH WIND       PRES   REMARKS
CHATTANOOGA    MOCLDY    64  60  87 NE8       29.99S
$$

SKY/WX REPORTED AS FAIR MEANS FEW OR NO CLOUDS BELOW
12 THOUSAND FEET.




USA.gov is the U.S. government's official web portal to all federal, state and local government web resources and services.